Wind_Speed
49 48 46 46 46 45 45 45 44 43 42 41 42 42 41 40 40 40 41 41 41 41 40 39 39 38 37 36 35 34 33 32 30 29 27 26 26 25
48 48 48 46 45 46 47 46 44 44 42 42 41 40 40 39 39 40 41 40 40 40 39 38 37 36 35 35 34 33 32 31 29 27 26 25 25 24
49 48 47 46 45 45 44 44 43 42 42 41 40 40 39 39 39 40 40 39 39 38 37 37 36 34 34 34 33 32 31 28 27 26 25 24 23 23
46 47 46 46 45 44 44 43 43 43 42 40 40 40 40 39 39 39 39 38 37 36 35 35 34 34 33 33 32 30 28 27 26 25 25 24 23 23
47 47 47 47 45 45 45 44 43 42 41 40 39 39 39 39 38 38 38 37 36 35 34 33 33 33 33 32 30 29 28 26 26 26 24 24 23 23
46 46 47 46 45 44 44 42 40 39 38 38 39 39 38 38 38 37 36 35 35 34 34 33 33 32 32 31 29 28 26 26 26 25 24 23 23 22
44 44 45 46 45 44 42 40 39 39 38 37 38 38 37 37 36 36 35 34 34 33 33 33 32 32 31 29 28 26 26 26 25 24 23 23 22 22
42 42 42 42 42 41 39 37 36 37 36 37 37 37 36 36 35 35 34 34 33 33 32 32 31 30 29 28 27 26 25 25 24 23 22 22 22 21
39 39 39 39 39 38 37 36 36 35 35 36 36 36 35 35 34 34 34 33 32 32 31 30 29 28 27 26 26 25 24 23 22 22 22 22 22 22
37 37 37 37 36 36 36 36 35 35 35 35 36 35 35 34 34 34 33 32 31 30 29 29 28 27 26 25 24 23 23 22 22 21 21 21 22 22
36 36 36 36 35 35 34 35 35 35 35 35 35 35 34 34 33 33 32 31 30 29 29 28 27 26 25 24 23 23 22 22 21 21 21 22 23 22
34 35 34 34 34 34 34 34 34 34 34 34 34 33 33 33 33 32 31 30 29 29 28 27 26 25 24 24 23 23 23 22 22 22 22 22 22 23
33 33 33 33 34 34 34 34 34 34 34 34 34 33 32 32 32 31 30 29 29 28 28 26 26 25 24 24 23 23 22 23 23 23 23 23 23 24
34 33 33 33 33 34 34 34 34 34 34 33 33 32 32 31 31 30 30 29 28 27 26 26 26 25 25 24 23 23 23 23 24 24 24 24 24 24
33 33 33 33 34 34 34 34 34 33 32 32 31 31 31 30 30 29 28 28 27 26 26 26 26 26 25 25 24 24 24 24 24 24 24 24 25 25
32 33 33 33 33 33 33 32 32 32 31 30 30 30 30 29 29 28 28 27 27 27 26 26 26 26 25 25 25 25 25 25 25 25 25 26 26 26
31 32 32 32 32 32 31 31 31 31 30 30 30 30 29 29 29 28 28 27 27 27 26 26 26 26 26 26 26 26 26 26 26 26 27 27 27 27
31 31 31 31 31 31 31 31 31 31 30 29 30 30 30 30 29 29 28 28 27 27 27 27 27 27 27 27 28 28 28 28 28 28 28 28 29 29
30 30 31 31 31 31 31 31 31 31 30 30 30 30 30 29 29 29 28 28 28 28 28 28 28 28 28 28 28 28 29 29 29 29 30 30 30 30
31 32 32 31 31 31 31 31 31 30 30 30 30 29 29 29 29 29 29 29 29 29 29 29 29 29 29 29 29 29 30 30 30 31 31 31 31 31
31 31 31 31 31 31 31 30 30 30 30 30 30 30 30 30 30 30 30 30 30 30 30 30 31 31 30 30 30 31 32 32 32 32 32 32 32 33
30 30 31 31 31 31 31 30 30 30 30 30 30 30 30 30 30 30 30 30 31 31 31 31 31 31 31 31 32 33 33 33 33 33 33 33 34 34
30 30 31 31 31 30 30 30 30 30 30 30 30 30 30 30 30 30 30 31 31 31 31 32 32 33 33 33 33 34 34 34 34 34 34 35 35 35
Wind_Direction
265 266 267 269 271 273 275 277 278 279 279 279 282 283 284 287 288 289 289 290 290 290 289 289 289 288 288 288 287 285 284 284 282 281 278 274 270 266
265 265 267 269 270 272 274 274 275 277 278 280 280 283 285 286 287 288 288 289 289 288 288 287 287 286 287 287 286 284 284 283 280 278 275 272 268 262
263 264 266 267 270 272 271 271 273 276 278 280 281 282 283 285 287 287 286 286 286 286 286 286 285 285 285 284 284 283 282 280 278 276 273 270 265 260
263 263 265 268 270 270 270 271 274 277 278 279 280 280 281 283 284 284 285 284 284 284 285 285 285 284 284 283 283 281 279 276 275 275 272 269 263 258
263 264 265 267 268 269 271 272 274 275 277 277 278 279 281 282 283 283 283 283 283 283 283 284 284 283 282 281 281 279 276 275 274 273 272 266 260 255
264 264 266 268 268 269 270 270 271 273 274 276 277 279 280 280 281 282 281 282 282 281 282 283 282 281 280 279 278 277 274 273 273 271 269 263 257 251
266 265 266 267 267 268 267 268 269 271 273 275 277 278 278 279 280 280 280 280 281 281 281 281 280 279 278 278 277 275 273 272 270 267 264 259 253 251
264 263 264 264 265 265 266 267 269 271 273 274 275 276 277 278 279 278 278 279 280 280 279 278 277 277 276 276 275 273 271 270 268 265 261 255 251 249
264 263 263 262 261 262 265 266 269 271 273 273 273 274 276 276 277 278 277 277 278 278 277 276 275 274 274 274 273 271 268 267 266 263 258 252 249 249
261 259 259 261 263 263 265 267 269 270 271 271 272 273 273 275 276 277 276 276 275 275 274 273 272 272 272 271 270 267 266 264 261 258 254 251 249 248
261 261 262 264 264 265 266 267 268 269 270 271 271 272 272 273 275 275 274 273 273 272 272 270 270 270 269 268 267 266 264 261 258 255 253 251 249 248
263 264 263 263 263 264 265 265 266 268 269 270 271 272 272 273 273 273 272 271 270 270 269 268 268 268 267 267 265 264 261 259 257 255 252 249 248 249
264 263 262 262 262 264 264 264 266 268 269 270 270 271 272 271 271 271 271 269 269 268 267 267 267 266 265 265 264 262 260 259 257 255 252 251 251 252
262 262 261 261 261 263 264 266 267 268 268 269 269 270 270 270 269 269 269 268 267 266 266 266 265 264 263 263 262 260 259 258 256 255 255 254 254 253
261 260 259 260 261 263 265 266 266 267 267 267 268 268 268 268 267 267 267 266 266 265 265 265 263 262 261 261 261 260 259 257 256 256 256 255 255 255
259 259 260 261 262 264 265 266 266 266 266 266 267 266 266 266 265 266 266 265 265 264 264 263 262 261 260 260 260 259 258 257 257 257 256 256 257 256
260 260 261 262 262 263 264 265 265 265 265 265 265 265 265 264 264 264 265 264 263 263 264 263 261 261 261 261 260 259 259 259 259 258 257 257 258 257
261 261 263 263 263 263 264 264 264 265 265 265 265 264 264 263 264 263 264 263 262 262 263 263 262 262 262 261 260 260 261 260 259 259 258 258 259 259
263 262 262 262 263 263 264 264 264 264 264 264 264 264 263 263 263 263 263 263 262 262 263 263 263 263 263 262 261 261 261 261 260 259 259 260 261 261
264 262 263 263 263 263 264 265 265 264 264 264 264 263 263 263 263 263 263 263 262 263 263 263 263 263 263 264 263 263 262 262 261 261 261 262 262 263
263 262 262 262 262 263 264 265 264 264 264 264 264 263 263 263 264 264 263 262 263 263 263 264 264 264 264 264 264 263 263 262 262 262 262 262 263 263
261 260 260 260 261 262 263 263 263 263 264 264 264 264 264 264 264 263 263 263 263 263 263 264 264 265 264 264 264 264 264 264 263 263 263 263 264 264
261 260 259 259 260 262 263 262 261 262 264 265 265 265 265 265 265 265 264 264 264 264 265 265 266 265 265 265 265 264 264 264 264 264 264 264 265 266
Height
5710 5711 5712 5713 5712 5713 5713 5714 5714 5714 5714 5713 5711 5710 5709 5707 5706 5704 5702 5700 5698 5696 5694 5692 5690 5688 5686 5684 5683 5681 5680 5679 5678 5678 5678 5678 5679 5680
5697 5699 5700 5700 5700 5701 5701 5702 5702 5702 5702 5702 5700 5699 5698 5697 5695 5694 5692 5690 5688 5686 5684 5682 5680 5679 5677 5675 5674 5673 5672 5671 5671 5670 5670 5671 5672 5673
5684 5686 5687 5688 5688 5689 5689 5689 5689 5689 5690 5690 5689 5688 5687 5685 5684 5683 5681 5679 5677 5676 5674 5673 5671 5669 5668 5667 5665 5664 5664 5663 5663 5663 5663 5664 5664 5666
5671 5673 5675 5675 5676 5676 5677 5677 5677 5677 5678 5678 5677 5676 5676 5675 5673 5672 5671 5669 5667 5666 5664 5663 5662 5661 5659 5658 5657 5656 5656 5656 5656 5656 5656 5657 5658 5659
5658 5660 5661 5662 5663 5664 5664 5665 5665 5666 5666 5666 5666 5665 5665 5664 5663 5662 5660 5659 5658 5656 5655 5654 5653 5652 5651 5650 5649 5648 5648 5648 5648 5649 5649 5649 5651 5652
5645 5647 5648 5649 5650 5651 5652 5653 5653 5654 5654 5655 5655 5655 5654 5653 5652 5651 5650 5649 5648 5647 5646 5645 5644 5643 5642 5641 5641 5640 5640 5640 5641 5641 5642 5643 5644 5646
5632 5634 5635 5636 5638 5639 5640 5641 5642 5642 5643 5643 5644 5644 5644 5643 5642 5641 5640 5639 5639 5638 5637 5636 5635 5635 5634 5633 5633 5633 5633 5633 5633 5634 5635 5636 5638 5640
5620 5621 5622 5624 5626 5627 5628 5629 5630 5631 5632 5633 5633 5633 5633 5633 5632 5631 5630 5630 5629 5629 5628 5627 5627 5626 5625 5625 5625 5625 5625 5626 5626 5627 5628 5630 5632 5634
5608 5610 5611 5613 5614 5616 5617 5618 5620 5620 5621 5622 5623 5622 5622 5622 5622 5621 5621 5620 5620 5619 5619 5618 5618 5618 5617 5617 5617 5618 5618 5619 5619 5620 5622 5623 5625 5627
5597 5599 5601 5602 5604 5605 5607 5608 5609 5610 5611 5611 5612 5612 5612 5612 5612 5611 5611 5611 5610 5610 5610 5610 5610 5610 5609 5609 5610 5610 5611 5612 5613 5614 5616 5617 5619 5621
5587 5588 5590 5591 5593 5595 5596 5598 5599 5599 5600 5601 5601 5601 5602 5602 5602 5602 5602 5601 5601 5601 5602 5602 5601 5601 5602 5602 5603 5603 5604 5605 5606 5608 5609 5611 5612 5614
5577 5578 5580 5581 5583 5585 5586 5587 5588 5589 5590 5590 5591 5591 5591 5592 5592 5592 5592 5592 5592 5593 5593 5593 5593 5594 5594 5595 5596 5596 5597 5598 5600 5601 5603 5604 5606 5608
5567 5568 5570 5571 5573 5575 5576 5577 5578 5579 5580 5580 5581 5581 5582 5582 5582 5583 5583 5583 5584 5584 5585 5585 5586 5586 5587 5588 5588 5589 5590 5592 5593 5594 5596 5597 5599 5601
5558 5559 5560 5562 5563 5565 5566 5567 5568 5569 5570 5570 5571 5572 5572 5572 5573 5573 5574 5574 5575 5575 5576 5577 5578 5579 5579 5580 5581 5582 5583 5584 5585 5587 5588 5590 5592 5593
5548 5549 5551 5552 5554 5555 5556 5557 5558 5559 5560 5560 5561 5562 5562 5563 5564 5564 5565 5565 5566 5567 5568 5568 5570 5570 5572 5573 5574 5575 5576 5577 5578 5579 5581 5582 5584 5585
5538 5540 5541 5542 5544 5545 5546 5547 5548 5549 5550 5551 5551 5552 5553 5554 5555 5555 5556 5557 5558 5558 5559 5560 5561 5562 5564 5565 5566 5567 5568 5569 5570 5572 5573 5574 5576 5577
5529 5530 5532 5533 5534 5536 5537 5538 5538 5539 5540 5541 5542 5543 5544 5545 5546 5547 5547 5548 5549 5550 5551 5552 5553 5554 5555 5557 5558 5559 5560 5561 5562 5563 5565 5566 5567 5568
5519 5521 5522 5524 5525 5526 5527 5528 5529 5530 5531 5532 5533 5534 5535 5536 5536 5537 5538 5539 5540 5541 5542 5543 5544 5546 5547 5548 5549 5550 5551 5552 5553 5554 5556 5557 5558 5559
5510 5511 5513 5514 5515 5516 5517 5518 5519 5520 5522 5523 5524 5525 5525 5526 5527 5528 5529 5530 5531 5532 5533 5534 5536 5537 5538 5539 5540 5541 5542 5543 5544 5545 5546 5547 5548 5549
5501 5502 5503 5504 5506 5507 5508 5509 5510 5511 5512 5513 5514 5515 5516 5517 5518 5519 5520 5521 5522 5523 5524 5525 5526 5527 5528 5530 5531 5531 5532 5533 5534 5535 5536 5537 5538 5539
5491 5492 5493 5494 5496 5497 5498 5499 5500 5501 5503 5504 5505 5505 5506 5507 5508 5509 5510 5511 5512 5513 5514 5515 5516 5517 5518 5520 5521 5521 5522 5523 5524 5525 5526 5527 5528 5528
5481 5482 5483 5485 5486 5488 5489 5490 5491 5492 5493 5494 5495 5496 5496 5497 5498 5499 5500 5501 5502 5503 5504 5505 5506 5507 5508 5509 5509 5510 5511 5512 5513 5513 5515 5516 5516 5517
5471 5472 5473 5475 5476 5478 5479 5480 5481 5482 5483 5484 5485 5486 5486 5487 5488 5489 5490 5491 5492 5493 5494 5494 5495 5496 5497 5498 5498 5499 5499 5500 5501 5502 5503 5504 5505 5505